Location: Ostrava
(49.8330°N, 18.2830°E)
Time: 23:48:02
(UTC+02:00)

Cosmos 2219 Rocket - Visible Passes

Search period start: 23 September 2017 00:00
Search period end: 03 October 2017 00:00
Orbit: 829 x 845 km, 71.0° (Epoch: 22 September)

Date Brightness Start Highest point End Pass type
(mag) Time Alt. Az. Time Alt. Az. Time Alt. Az.
23 Sep 4.3 00:23:18 10° NNW 00:25:30 23° N 00:25:30 23° N visible
23 Sep 4.5 22:24:05 10° N 22:26:43 13° NNE 22:27:30 13° NE visible
24 Sep 4.3 00:06:57 10° NNW 00:09:11 23° N 00:09:11 23° N visible
24 Sep 4.5 22:07:49 10° N 22:10:16 13° NNE 22:11:13 12° NE visible
24 Sep 4.2 23:50:38 10° NNW 23:52:55 23° N 23:52:55 23° N visible
25 Sep 4.5 21:51:33 10° N 21:53:49 12° NNE 21:54:57 12° NE visible
25 Sep 4.2 23:34:17 10° NNW 23:36:38 23° N 23:36:38 23° N visible
26 Sep 4.9 01:18:16 10° NW 01:18:21 10° NW 01:18:21 10° NW visible
26 Sep 4.5 21:35:18 10° N 21:37:22 12° NNE 21:38:43 11° NE visible
26 Sep 4.2 23:17:58 10° NNW 23:20:25 23° N 23:20:25 23° N visible
27 Sep 4.9 01:01:53 10° NW 01:02:07 11° NW 01:02:07 11° NW visible
27 Sep 4.5 21:19:04 10° N 21:20:54 11° NNE 21:22:30 10° NE visible
27 Sep 4.1 23:01:38 10° NNW 23:04:12 23° N 23:04:12 23° N visible
28 Sep 4.8 00:45:30 10° NW 00:45:54 12° NW 00:45:54 12° NW visible
28 Sep 4.5 21:02:52 10° N 21:04:27 11° NNE 21:06:01 10° NE visible
28 Sep 4.1 22:45:18 10° NNW 22:48:00 24° N 22:48:00 24° N visible
29 Sep 4.8 00:29:07 10° NW 00:29:42 13° NW 00:29:42 13° NW visible
29 Sep 4.5 20:46:41 10° N 20:47:59 11° NNE 20:49:17 10° NE visible
29 Sep 4.0 22:28:58 10° NNW 22:31:50 24° N 22:31:50 24° N visible
30 Sep 4.8 00:12:44 10° NW 00:13:32 14° NW 00:13:32 14° NW visible
30 Sep 4.5 20:30:34 10° N 20:31:31 10° NNE 20:32:28 10° NNE visible
30 Sep 3.9 22:12:39 10° NNW 22:15:40 24° NNE 22:15:40 24° NNE visible
30 Sep 4.7 23:56:21 10° NW 23:57:23 16° NW 23:57:23 16° NW visible
01 Oct 4.5 20:14:42 10° NNE 20:15:03 10° NNE 20:15:25 10° NNE visible
01 Oct 3.9 21:56:19 10° NNW 21:59:32 24° NNE 21:59:32 24° NNE visible
01 Oct 4.6 23:40:00 10° NNW 23:41:14 17° NW 23:41:14 17° NW visible
02 Oct 3.8 21:40:01 10° NNW 21:43:25 24° NNE 21:43:25 24° NNE visible
02 Oct 4.5 23:23:37 10° NNW 23:25:07 19° NW 23:25:07 19° NW visible
